Weather in Haridwar

India     30°02′05″N   78°12′36″E
temp.,
°C
wind,
m/s
gust,
m/s
humid.,
%
clouds,
%
prec.,
mm/h
press.,
hPa
HPBL,
m
18 january, mon
mon1823:30+10ene22650 0.0 101923
02:30+10ene22630 0.0 101927
05:30+10ene22600 0.0 101930
08:30+12ene22500 0.0 102070
11:30+22sw12280 0.0 1018831
14:30+23sw32290 0.0 10161193
17:30+16w11460 0.0 101523
20:30+13ne22510 0.0 101723
19 january, tue
tue1923:30+12ne22500 0.0 101727
02:30+11ne22460 0.0 101529
05:30+10ene22430 0.0 101431
08:30+13ene22370 0.0 101671
11:30+22wsw21220 0.0 1015707
14:30+23wsw33230 0.0 10121105
17:30+16wnw22410 0.0 101238
20:30+12ne12520 0.0 101523
20 january, wed
wed2023:30+11ene12540 0.0 101523
02:30+10ene22500 0.0 101427
05:30+10ene22420 0.0 101429
08:30+12ene12320 0.0 101568
11:30+21wsw21210 0.0 1014610
14:30+22wsw34240 0.0 10111040
17:30+16wnw12390 0.0 101228
20:30+12ene11480 0.0 101422
21 january, thu
thu2123:30+10ene12510 0.0 101524
02:30+10ene22480 0.0 101425
05:30+9ene22370 0.0 101327
08:30+12ene22280 0.0 101473
11:30+22sw21180 0.0 1013603
14:30+22sw22240 0.0 1011847
17:30+15sse11370 0.0 101323
20:30+12ene22420 0.0 101523
22 january, fri
fri2223:30+11ene22460 0.0 101625
02:30+11ene22490 0.0 101626
05:30+10ene22470 0.0 101526
08:30+12ene22370 0.0 101668
11:30+21sw23280 0.0 1015811
14:30+22sw222715 0.0 10131192
17:30+16w114234 0.0 101323
20:30+14ne224699 0.0 101524